Regional Weather Roundup
Issued by NWS

Home | Current Version | Previous Version | Graphics & Text | Print | Product List | Glossary On
Versions: 1 2 3 4 5 6 7 8 9 10 11 12 13 14 15 16 17 18 19 20 21 22 23 24 25 26 27 28 29 30 31 32 33 34 35 36 37 38 39 40 41 42 43 44 45 46 47 48 49 50
000
ASUS44 KMEG 272010
RWRTN
TENNESSEE HOURLY STATE WEATHER ROUNDUP
NATIONAL WEATHER SERVICE MEMPHIS TN
200 PM CST FRI FEB 27 2015

TNZ002-004-019-021-049-052-054-088>092-272100-
WEST TENNESSEE

CITY           SKY/WX    TMP DP  RH WIND       PRES   REMARKS
MEMPHIS INTL   PTSUNNY   34  13  41 NE10G16   30.51F WCI  26
NWS MEMPHIS      N/A     31 N/A N/A MISG        N/A
JACKSON        SUNNY     33  13  43 NE8       30.52F WCI  26
DYERSBURG      MOSUNNY   27   9  46 NE10      30.58F WCI  17
UNION CITY     SUNNY     25  12  58 NE10      30.56F WCI  15
PARIS          SUNNY     27  10  50 NE7       30.55S WCI  19
LEXINGTON      SUNNY     30   3  31 N9        30.50F WCI  22
SAVANNAH       SUNNY     36   9  32 N6        30.50S WCI  31
$$

TNZ008-025-027-028-033-062-065-066-272100-
NORTH MIDDLE TENNESSEE

CITY           SKY/WX    TMP DP  RH WIND       PRES   REMARKS
NASHVILLE      MOSUNNY   32  11  41 NE8       30.53F WCI  25
CLARKSVILLE    SUNNY     26  12  55 NE10      30.55F WCI  16
SMYRNA         SUNNY     33  10  38 N10       30.53F WCI  25
COOKEVILLE     SUNNY     30  12  47 N8        30.47S WCI  23
CROSSVILLE     SUNNY     28  11  48 NE8       30.42S WCI  20
$$

TNZ061-075-076-078-094-096-097-272100-
SOUTH MIDDLE TENNESSEE

CITY           SKY/WX    TMP DP  RH WIND       PRES   REMARKS
FAYETTEVILLE   SUNNY     32  14  47 NE10        N/A  WCI  24
TULLAHOMA      SUNNY     32  10  40 VRB3      30.46S
WINCHESTER     SUNNY     34  16  47 N9        30.46S WCI  26
MCMINNVILLE    SUNNY     30  12  47 VRB7      30.47R WCI  23
COLUMBIA         N/A     32  10  40 NE7       30.48F WCI  26
SHELBYVILLE    SUNNY     34  14  44 N9        30.50R WCI  26
$$

TNZ017-018-042-046-047-272100-
NORTHEAST TENNESSEE

CITY           SKY/WX    TMP DP  RH WIND       PRES   REMARKS
TRI CITIES     CLOUDY    32  23  69 CALM      30.43R
ELIZABETHTON   MIX PCPN  28  19  69 NW6       30.41R WCI  22
$$

TNZ012-013-036-069-073-074-272100-
CENTRAL EAST TENNESSEE

CITY           SKY/WX    TMP DP  RH WIND       PRES   REMARKS
KNOXVILLE      MOSUNNY   33  16  49 N8        30.45F WCI  26
OAK RIDGE      SUNNY     36  16  44 NE6       30.47F WCI  31
GATLINBURG     CLEAR     30  18  59 CALM      30.45S
MORRISTOWN     CLEAR     30  16  55 CALM      30.44S
$$

TNZ083-085-099-272100-
SOUTHEAST TENNESSEE

CITY           SKY/WX    TMP DP  RH WIND       PRES   REMARKS
CHATTANOOGA    SUNNY     40  18  41 N12       30.45S WCI  33
$$

SKY/WX REPORTED AS FAIR MEANS FEW OR NO CLOUDS BELOW
12 THOUSAND FEET.



USA.gov is the U.S. government's official web portal to all federal, state and local government web resources and services.